Weather History for KPRC - August, 2014

Change the Weather History Date:

Wednesday, August 6, 2014

  Actual Average Record
Temperature  
Mean Temperature 73 °F 74 °F  
Max Temperature 88 °F 87 °F 98 °F (1995)
Min Temperature 57 °F 62 °F 52 °F (1953)
Degree Days  
Heating Degree Days 0    
Month to date heating degree days 0  
Since 1 July heating degree days 0  
Cooling Degree Days 8    
Month to date cooling degree days 48  
Year to date cooling degree days 728  
Growing Degree Days 22 (Base 50)    
Moisture  
Dew Point 35 °F    
Average Humidity 27    
Maximum Humidity 48    
Minimum Humidity 12    
Precipitation  
Precipitation 0.00 in 0.09 in 0.99 in (1948)
Month to date precipitation 0.36 0.53  
Year to date precipitation 3.16 7.57  
Sea Level Pressure  
Sea Level Pressure 29.93 in    
Wind  
Wind Speed 8 mph (SSW)    
Max Wind Speed 17 mph    
Max Gust Speed 25 mph    
Visibility 10 miles    
Events      
T = Trace of Precipitation, MM = Missing Value Source: NWS Daily Summary

Daily Weather History Graph

Daily Weather History Graph

Search for Another Location

Airport or City:

Trip Planner

Search our weather history database for the weather conditions in past years. The results will help you decide how hot, cold, wet, or windy it might be!

Date:

Astronomy

Aug. 06, 2014 Rise Set
Actual Time 5:43 AM MST 7:27 PM MST
Civil Twilight 5:16 AM MST 7:54 PM MST
Nautical Twilight 4:43 AM MST 8:27 PM MST
Astronomical Twilight 4:08 AM MST 9:01 PM MST
Moon 3:46 PM MST 1:23 AM MST
Length of Visible Light 14h 37m
Length of Day
13h 43m
Waxing Gibbous, 78% of the Moon is Illuminated
Aug 6
Waxing Gibbous
Aug 10
Full
Aug 17
Last Quarter
Aug 25
New
Sep 2
First Quarter

Hourly Weather History & Observations

Time (MST) Temp. Dew Point Humidity Pressure Visibility Wind Dir Wind Speed Gust Speed Precip Events Conditions
12:53 AM 64.0 °F 43.0 °F 46% 29.96 in 10.0 mi South 6.9 mph - N/A   Clear
1:53 AM 64.0 °F 42.1 °F 45% 29.95 in 10.0 mi South 10.4 mph - N/A   Clear
2:53 AM 62.1 °F 42.1 °F 48% 29.96 in 10.0 mi SSW 8.1 mph - N/A   Clear
3:53 AM 62.1 °F 39.9 °F 44% 29.96 in 10.0 mi SSW 8.1 mph - N/A   Clear
4:53 AM 60.1 °F 37.0 °F 42% 29.96 in 10.0 mi South 8.1 mph - N/A   Clear
5:53 AM 57.9 °F 37.0 °F 46% 29.98 in 10.0 mi SSW 6.9 mph - N/A   Clear
6:53 AM 63.0 °F 37.0 °F 38% 29.98 in 10.0 mi South 6.9 mph - N/A   Clear
7:53 AM 71.1 °F 37.9 °F 30% 29.98 in 10.0 mi Calm Calm - N/A   Clear
8:53 AM 78.1 °F 35.1 °F 21% 29.97 in 10.0 mi NNE 4.6 mph - N/A   Clear
10:53 AM 84.0 °F 37.9 °F 19% 29.96 in 10.0 mi SSW 9.2 mph - N/A   Clear
11:53 AM 86.0 °F 34.0 °F 16% 29.95 in 10.0 mi South 11.5 mph 19.6 mph N/A   Partly Cloudy
12:53 PM 86.0 °F 34.0 °F 16% 29.94 in 10.0 mi SSE 8.1 mph 18.4 mph N/A   Partly Cloudy
1:53 PM 87.1 °F 35.1 °F 16% 29.92 in 10.0 mi South 9.2 mph - N/A   Scattered Clouds
2:53 PM 87.1 °F 33.1 °F 15% 29.91 in 10.0 mi West 13.8 mph - N/A   Scattered Clouds
3:53 PM 87.1 °F 32.0 °F 14% 29.89 in 10.0 mi SW 9.2 mph - N/A   Partly Cloudy
4:53 PM 87.1 °F 28.9 °F 12% 29.88 in 10.0 mi SW 6.9 mph - N/A   Partly Cloudy
5:53 PM 84.9 °F 28.9 °F 13% 29.88 in 10.0 mi South 8.1 mph - N/A   Clear
6:53 PM 82.9 °F 30.0 °F 15% 29.88 in 10.0 mi SW 8.1 mph - N/A   Clear
7:53 PM 78.1 °F 30.9 °F 18% 29.88 in 10.0 mi SW 6.9 mph - N/A   Clear
8:53 PM 73.9 °F 32.0 °F 21% 29.89 in 10.0 mi SSW 8.1 mph - N/A   Clear
9:53 PM 70.0 °F 34.0 °F 27% 29.90 in 10.0 mi South 6.9 mph - N/A   Clear
10:53 PM 69.1 °F 33.1 °F 26% 29.90 in 10.0 mi South 6.9 mph - N/A   Clear
11:53 PM 66.9 °F 33.1 °F 28% 29.90 in 10.0 mi SSW 8.1 mph - N/A   Clear